IRIDIUM 33 DEB, 46979

Orbit data source: Space-Track

IRIDIUM 33 DEB, 46979 is space debris in LEO originally from a launch on Sun, 14 Sep 1997 UTC launched from the Tyuratam Missile And Space Complex (TTMTR). The debris from Iridium 33, an American commercial communications satellite, has been tracked extensively since its accidental collision with the defunct Russian satellite Cosmos 2251 in 2009. This event, occurring at high speed in low Earth orbit (LEO), generated thousands of pieces of space debris, significantly increasing the risk of further collisions. The Iridium 33 debris cloud has impacted space traffic management and orbital debris mitigation strategies, making it a subject of ongoing study in space situational awareness.

Loading next visibility...
Identifier
46979, 1997-051ACM
Orbit
LEO
Country
Flag of USUS
Related business
Manufacturer
Unknown
Mission
Spacecraft
Bus & Motor
Unknown
Mass
Unknown
Launch date (UTC)
1997-09-14 (28 years ago)
Launch vehicle
Unknown
Launch site
Tyuratam Missile And Space Complex (TTMTR)
Object type
Payload
Rocket body
Debris
Shape & HBR
Unknown shape, 0.1 m
Radar Cross Section
Small (<0.1 m²)

Expand to show TLE details & history
Last TLE update: 2 days ago

TLE from 2 days ago
0 IRIDIUM 33 DEB
1 46979U 97051ACM 25306.07760417  .00037900  00000-0  44060-2 0  9990
2 46979  86.3339  67.3673 0027715   8.4868 351.6818 14.84881332348242
Epoch: 2025-11-02T01:51Z
TLE epoch observation values (Epoch: 2025-11-02T01:51:45.000Z)
Latitude
-0.00005°
Longitude
-2.16871°
Altitude
597.902 km
Speed
7.571 km/s
True Right ascension
04h 29m 28s
True Declination
0° 00' 00"
Sunlit
Object was in full shadow at epoch
Visualization orbit readout
Latitude
Unknown
Longitude
Unknown
Altitude
Unknown
Speed
Unknown
Apparent Right ascension
Unknown
Apparent Declination
Unknown
Sunlit
N/A
Visualization observer readout
Local Sidereal Time
14:18:39
Azimuth
Unknown
Elevation
Unknown
Doppler factor
Unknown
Orbital elements
Apogee altitude
630.223 km
Perigee altitude
591.483 km
Semi-major axis
6,988.99 km
Eccentricity
0.00277
Inclination
86.3339°
RAAN
67.3673°
Arg. of periapsis
8.4868°
True anomaly
351.6357°
Mean anomaly
351.6818°
Eccentric anomaly
351.65876°
Mean motion
3.71468 °/min
Orbital period
96.91 mins
BSTAR
0.004406
Loading maneuver chart data...
Computing Atmospheric mass density...

Documentation

Showing up to 5 results
|